Flag for Brazil Weather past 2 weeks in Foz do Iguaçu, Paraná, Brazil

Now
68 °F

Clear.


Feels Like: 68 °F
Forecast: 63 / 88 °F
Wind: 12 mph from East

Location: Foz Do Iguacu Aeroporto

Current Time: Oct 22, 2014 at 5:40:49 AM

Latest Report: Oct 22, 2014 at 5:00 AM


Visibility: 10 mi

Pressure: 30.01 "Hg

Humidity: 73%

Dew point: 59 °F

Location of Foz do IguaçuLocation

Historic Weather in Foz do Iguaçu — Graph

°F

Foz do Iguaçu temperature yesterday

Maximum temperature yesterday: 90 °F (at 4:00 PM)
Minimum temperature yesterday: 59 °F (at 7:00 AM)
Average temperature yesterday: 75 °F

Past Weeks' High & Low Weather Summary

 TemperatureHumidityPressure
High102 °F (Oct 15, 2:00 PM)100% (Oct 7, 4:00 AM)30.07 "Hg (Oct 7, 4:00 AM)
Low59 °F (Oct 7, 3:00 AM)24% (Oct 15, 4:00 PM)29.68 "Hg (Oct 18, 4:00 PM)
Average81 °F66%29.88 "Hg
* Reported Oct 7 3:00 AM — Oct 22 4:00 AM, Foz do Iguaçu, Weather by CustomWeather, © 2014

Note: Actual official high and low records may vary slightly from our data, if they occured in-between our weather recording intervals... More about our weather records

Advertising

Foz do Iguaçu weather history for previous 24 hours

 ConditionsComfort  
Time TempWeatherWind HumidityBarometerVisibility
4:00 AM
Oct 22
70 °FClear.12 mph69%30.01 "Hg10 mi
3:00 AM72 °FClear.12 mph69%30.01 "Hg10 mi
2:00 AM72 °FClear.9 mph73%30.01 "Hg10 mi
1:00 AM72 °FClear.8 mph73%30.04 "Hg10 mi
12:00 AM73 °FClear.7 mph69%30.04 "Hg10 mi
11:00 PM
Oct 21
73 °FClear.8 mph69%30.04 "Hg10 mi
10:00 PM77 °FClear.7 mph61%30.01 "Hg10 mi
9:00 PM77 °FClear.8 mph61%30.01 "Hg10 mi
8:00 PM77 °FClear.5 mph65%29.98 "Hg10 mi
7:00 PM86 °FSunny.5 mph46%29.98 "Hg10 mi
6:00 PM88 °FSunny.6 mph40%29.98 "Hg10 mi
5:00 PM88 °FSunny.6 mph40%29.98 "Hg10 mi
4:00 PM90 °FPassing clouds.6 mph24%30.01 "HgN/A
3:00 PM88 °FScattered clouds.6 mph35%30.04 "HgN/A
2:00 PM86 °FScattered clouds.5 mph49%30.04 "HgN/A
1:00 PM86 °FPassing clouds.5 mph49%30.07 "HgN/A
12:00 PM82 °FSunny.3 mph55%30.07 "Hg10 mi
11:00 AM77 °FSunny.6 mph61%30.07 "Hg10 mi
10:00 AM73 °FSunny.9 mph61%30.07 "Hg10 mi
9:00 AM68 °FSunny.3 mph73%30.07 "Hg10 mi
8:00 AM63 °FSunny.3 mph83%30.04 "Hg10 mi
7:00 AM59 °FSunny.2 mph88%30.04 "Hg10 mi
6:00 AM61 °FClear.3 mph94%30.04 "Hg10 mi
5:00 AM61 °FClear.2 mph94%30.01 "Hg10 mi
Weather by CustomWeather, © 2014

See weather overviewHow to use our weather pages